Weather Roundup
Issued by NWS

Home | Current Version | Previous Version | Graphics & Text | Print | Product List | Glossary Off
Versions: 1 2 3 4 5 6 7 8 9 10 11 12 13 14 15 16 17 18 19 20 21 22 23 24 25 26 27 28 29 30 31 32 33 34 35 36 37 38 39 40 41 42 43 44 45 46 47 48 49 50

702
NZUS93 KARX 071910
HRRWXR

CURRENT HOURLY OBSERVATIONS ACROSS
MUCH OF THE UPPER MISSISSIPPI VALLEY
NATIONAL WEATHER SERVICE LA CROSSE WI
100 PM CST SUN FEB 07 2016


...SOUTHEAST MINNESOTA...


CITY           SKY/WX    TMP DP  RH WIND       PRES   REMARKS
ROCHESTER      MOSUNNY   36  27  69 W21G29    29.66F WCI  25
ROCHESTER/MAYO FAIR      39  26  61 W20G30    29.66S WCI  29
WINONA         MOSUNNY   41  27  56 W18       29.66F
AUSTIN         MOSUNNY   37  28  70 W16G22    29.69F WCI  28
ALBERT LEA     MOSUNNY   37  28  70 W12G22    29.70F WCI  30
DODGE CENTER   MOSUNNY   39  25  56 W23       29.66F WCI  29
PRESTON        MOSUNNY   35  26  69 W17       29.69F WCI  24
OWATONNA       MOSUNNY   37  25  60 W21G28    29.68F WCI  27
FARIBAULT        N/A     39  27  60 W21G28    29.67F WCI  29
$$

...ELSEWHERE IN MINNESOTA...


CITY           SKY/WX    TMP DP  RH WIND       PRES   REMARKS
MINNEAPOLIS    CLOUDY    39  26  59 W21G26    29.62F WCI  29
INTNL FALLS    CLOUDY    30  26  85 W14G22    29.45R WCI  19
DULUTH         LGT SNOW  34  31  88 W16       29.44F FOG     WCI  24
RED WING       MOSUNNY   41  25  52 W17G24    29.62F
REDWOOD FALLS  CLOUDY    38  29  70 W21G30    29.70F WCI  28
MANKATO        MOSUNNY   39  27  60 W24G31    29.69F WCI  28
WORTHINGTON    SUNNY     34  27  75 W24       29.77F WCI  21
FAIRMONT       SUNNY     39  27  60 W21G30    29.73F WCI  29
$$

...SOUTHWEST WISCONSIN...


CITY           SKY/WX    TMP DP  RH WIND       PRES   REMARKS
LA CROSSE      SUNNY     41  25  53 W18G28    29.65F
PRAIRIE DU CHI MOSUNNY   39  25  56 W12G17    29.72S WCI  32
BOSCOBEL       SUNNY     41  26  55 W14G23    29.70F
LONE ROCK      SUNNY     41  27  57 W15       29.67F
PLATTEVILLE    SUNNY     39  28  64 W21G26    29.71S WCI  29
FORT MC COY    SUNNY     42  28  56 W15G23    29.64F
CAMP DOUGLAS   MOSUNNY   41  32  70 W16       29.61F
VIROQUA        FAIR      38  27  63 W18G24    29.65F WCI  29
WIS DELLS      SUNNY     41  28  59 W13       29.62F
$$

...ELSEWHERE IN WISCONSIN...


CITY           SKY/WX    TMP DP  RH WIND       PRES   REMARKS
MILWAUKEE      PTSUNNY   43  30  60 SW18      29.66F
MADISON        MOSUNNY   40  29  64 SW10      29.65F WCI  33
GREEN BAY      CLOUDY    40  31  70 S9        29.58F WCI  34
EAU CLAIRE     CLOUDY    39  26  59 W15       29.58F WCI  31
BLACK RVR FLS  MOCLDY    42  25  50 W13       29.61F
MEDFORD        CLOUDY    36  29  78 SW9G18    29.53F WCI  29
WAUSAU         CLOUDY    38  29  70 W13       29.53F WCI  30
WIS RAPIDS     CLOUDY    40  27  59 W10       29.60F WCI  33
MARSHFIELD     CLOUDY    39  26  59 W13       29.56F WCI  31
RICE LAKE      CLOUDY    38  27  65 W13G21    29.56F WCI  30
$$

...NORTHEAST IOWA...


CITY           SKY/WX    TMP DP  RH WIND       PRES   REMARKS
WATERLOO       MOSUNNY   40  26  57 W17G32    29.77F WCI  31
DUBUQUE        SUNNY     37  27  67 W18G31    29.74F WCI  27
DECORAH        PTSUNNY   37  27  65 W14G23    29.69F WCI  29
MASON CITY     MOSUNNY   38  29  70 W20       29.76F WCI  28
CHARLES CITY   CLOUDY    37  30  75 W16G24    29.74F WCI  28
OELWEIN        CLOUDY    37  28  70 W18G25    29.75F WCI  27
$$

...ELSEWHERE IN IOWA...


CITY           SKY/WX    TMP DP  RH WIND       PRES   REMARKS
DES MOINES     CLOUDY    44  26  49 W18G28    29.88F
IOWA CITY      SUNNY     46  31  55 W21G28    29.84F
FORT DODGE     MOSUNNY   39  28  65 W16G22    29.83F WCI  30
MARSHALLTOWN   MOSUNNY   37  29  72 W18       29.82F WCI  27
CEDAR RAPIDS   MOSUNNY   42  31  64 W20G30    29.80F
$$

...NORTHERN ILLINOIS...


CITY           SKY/WX    TMP DP  RH WIND       PRES   REMARKS
CHICAGO-OHARE  PTSUNNY   42  30  62 SW18G25   29.72F
CHICAGO-MIDWAY PTSUNNY   45  30  55 SW17      29.74F
MOLINE         SUNNY     47  29  49 W15G25    29.79F
ROCKFORD       CLOUDY    44  32  62 W12       29.73F
PEORIA         MOSUNNY   45  30  55 W16       29.83S
$$

NOTE: "FAIR" INDICATES FEW OR NO CLOUDS BELOW 12,000 FEET WITH NO
SIGNIFICANT WEATHER AND/OR OBSTRUCTIONS TO VISIBILITY. WIND
SPEEDS ARE IN MILES-PER-HOUR.




USA.gov is the U.S. government's official web portal to all federal, state and local government web resources and services.